Regional Weather Roundup
Issued by NWS

Home | Current Version | Previous Version | Graphics & Text | Print | Product List | Glossary Off
Versions: 1 2 3 4 5 6 7 8 9 10 11 12 13 14 15 16 17 18 19 20 21 22 23 24 25 26 27 28 29 30 31 32 33 34 35 36 37 38 39 40 41 42 43 44 45 46 47 48 49 50

000
ASUS43 KDMX 232006
RWRIA

WEATHER ROUNDUP FOR IOWA
NATIONAL WEATHER SERVICE DES MOINES IA
200 PM CST MON JAN 23 2017

NOTE: "FAIR" INDICATES FEW OR NO CLOUDS BELOW 12,000 FEET WITH NO
SIGNIFICANT WEATHER AND/OR OBSTRUCTIONS TO VISIBILITY.

* - THESE STATIONS ARE NOT NWS STATIONS...THUS NOT UNDER NWS
QUALITY CONTROL.  THEY ALSO DO NOT REPORT WEATHER SUCH
AS PRECIPITATION OR FOG.

IAZ001>003-012>014-020>022-031>034-043>046-232100-
   NORTHWEST IOWA

CITY           SKY/WX    TMP DP  RH WIND       PRES   REMARKS
CARROLL *      CLOUDY    34  32  93 CALM      29.83F
CHEROKEE *     CLOUDY    32  30  93 CALM      29.82F
DENISON *      CLOUDY    32  28  86 E5        29.80F WCI  27
LE MARS *      CLOUDY    32  28  86 CALM      29.83S
ORANGE CITY *  CLOUDY    30  28  93 E3        29.80F
SHELDON *      CLOUDY    30  30 100 NW3       29.80F
SIOUX CITY     CLOUDY    34  28  79 E5        29.82F WCI  30
SPENCER        CLOUDY    32  29  88 N5        29.82F WCI  27
STORM LAKE *   CLOUDY    32  28  86 CALM      29.81F
$$

IAZ055>058-069>071-079>083-090>094-232100-
   SOUTHWEST IOWA

CITY           SKY/WX    TMP DP  RH WIND       PRES   REMARKS
ATLANTIC *     CLOUDY    32  30  93 CALM      29.84F
AUDUBON *      CLOUDY    34  28  80 CALM      29.83F
CLARINDA *     CLOUDY    34  30  86 NE3       29.86F
COUNCIL BLFS * CLOUDY    32  32 100 S5        29.83S WCI  27
CRESTON *      CLOUDY    32  30  93 CALM      29.85F
HARLAN  *      CLOUDY    32  32 100 CALM      29.86F
LAMONI         CLOUDY    33  29  85 NW5       29.85F WCI  29
RED OAK *      CLOUDY    34  30  86 CALM      29.85F
SHENANDOAH *   CLOUDY    34  30  86 CALM      29.86F
$$

IAZ047>049-059>061-072>074-084-232100-
   CENTRAL IOWA

CITY           SKY/WX    TMP DP  RH WIND       PRES   REMARKS
AMES           CLOUDY    33  31  92 NW7       29.85S WCI  27
ANKENY *       CLOUDY    34  30  86 W5        29.86F WCI  30
BOONE *        CLOUDY    32  32 100 CALM      29.83F
CHARITON *     CLOUDY    32  30  93 N6        29.84F WCI  26
DES MOINES     CLOUDY    34  29  82 NW5       29.85F WCI  30
GRINNELL*      CLOUDY    32  30  93 NW7       29.85S WCI  26
KNOXVILLE *    CLOUDY    32  30  93 NW8       29.84F WCI  25
MARSHALLTOWN   CLOUDY    32  31  96 NW6       29.83F WCI  26
NEWTON *       CLOUDY    32  30  93 W8        29.85S WCI  25
PELLA *        CLOUDY    33  31  92 NW9       29.87S FOG     WCI  25
PERRY *        CLOUDY    34  31  88 CALM      29.84F
$$

IAZ004>006-015-016-023>025-035-036-232100-
   NORTH CENTRAL IOWA

CITY           SKY/WX    TMP DP  RH WIND       PRES   REMARKS
ALGONA *       CLOUDY    34  30  86 N7        29.82F WCI  28
CLARION *      CLOUDY    34  32  93 NW7       29.84R WCI  28
ESTHERVILLE    CLOUDY    31  30  96 NW6       29.82S WCI  25
FORT DODGE *   CLOUDY    34  27  75 N5        29.84F WCI  30
MASON CITY     CLOUDY    33  29  85 NW7       29.83F WCI  27
FOREST CITY *  CLOUDY    32  32 100 N6        29.82S WCI  26
WEBSTER CITY * CLOUDY    34 N/A N/A W5        29.82S WCI  30
IOWA FALLS *   CLOUDY    33  30  88 NW6       29.84S WCI  28
$$

IAZ007>011-017>019-026>030-037>042-050>054-066-232100-
   NORTHEAST IOWA

CITY           SKY/WX    TMP DP  RH WIND       PRES   REMARKS
CEDAR RAPIDS   CLOUDY    34  31  88 W10       29.81F WCI  26
CHARLES CITY * CLOUDY    34  34 100 NW5       29.82F WCI  30
CLINTON *      CLOUDY    39  36  89 NW8       29.80F WCI  33
DECORAH *        N/A     34  32  93 VRB7      29.79F WCI  28
DUBUQUE        CLOUDY    37  34  89 NW8       29.79F WCI  31
MONTICELLO *   CLOUDY    37  34  87 NW7       29.81S WCI  32
OELWEIN *      CLOUDY    34  32  93 W9        29.82F WCI  26
WATERLOO       CLOUDY    34  29  82 NW8       29.82F WCI  27
$$

IAZ064-065-067-068-078-232100-
   EAST CENTRAL IOWA

CITY           SKY/WX    TMP DP  RH WIND       PRES   REMARKS
DAVENPORT      CLOUDY    38  35  89 W13       29.81S WCI  30
IOWA CITY      CLOUDY    39  32  76 W12       29.84F WCI  32
MUSCATINE *    CLOUDY    39  36  87 W12       29.83F WCI  32
QUAD CITIES    CLOUDY    41  34  76 W12       29.80F
$$

IAZ062-063-075>077-085>089-095>099-232100-
   SOUTHEAST IOWA

CITY           SKY/WX    TMP DP  RH WIND       PRES   REMARKS
BURLINGTON     CLOUDY    39  34  82 NW9       29.82F WCI  33
FAIRFIELD *    CLOUDY    36  30  80 NW9       29.84S WCI  29
FORT MADISON * CLOUDY    37  36  93 NW7       29.84S WCI  32
KEOKUK *       CLOUDY    39 N/A N/A NW8       29.83S WCI  34
OSKALOOSA *    CLOUDY    33  31  93 NW9       29.85F WCI  25
CENTERVILLE *  CLOUDY    32  32 100 W5        29.87R WCI  27
OTTUMWA        CLOUDY    34  28  79 NW8       29.85F WCI  27
WASHINGTON *   CLOUDY    36  32  87 NW9       29.85S WCI  29
$$

ABBREVIATIONS USED IN REMARKS
   TC - TEMPERATURES IN CELSIUS
  WCI - WIND CHILL INDEX
   HX - HEAT INDEX
  VSB - VISIBILITY
$$





USA.gov is the U.S. government's official web portal to all federal, state and local government web resources and services.